This is the latest recevied weather packets stored in our database for station/object SV9TNF-2. If no packets are shown the sender has not sent any weather packets the latest 10 day(s).
| Time | Temp. | Humidity | Pressure | Rain* | Wind** | Luminosity | Snow |
|---|---|---|---|---|---|---|---|
| 1777824600 | 13.89° C | 65% | 1022.7 hPa | 0 mm | 15.2 m/s, 11° | - | - |
| 1777824299 | 13.33° C | 67% | 1022.7 hPa | 1.27 mm | 4.92 m/s, 216° | - | - |
| 1777823999 | 13.33° C | 67% | 1022.7 hPa | 1.27 mm | 3.58 m/s, 247° | - | - |
| 1777823699 | 14.44° C | 63% | 1022.7 hPa | 0 mm | 28.61 m/s, 339° | - | - |
| 1777823399 | 14.44° C | 61% | 1022.7 hPa | 0 mm | 15.2 m/s, 278° | - | - |
| 1777823099 | 14.44° C | 59% | 1022.4 hPa | 0 mm | 23.69 m/s, 359° | - | - |
| 1777822799 | 14.44° C | 60% | 1022.4 hPa | 0 mm | 13.86 m/s, 3° | - | - |
| 1777822499 | 14.44° C | 59% | 1022.4 hPa | 0 mm | 11.62 m/s, 5° | - | - |
| 1777822147 | 14.44° C | 61% | 1022.4 hPa | 0 mm | 10.28 m/s, 340° | - | - |
| 1777821847 | 14.44° C | 55% | 1022.4 hPa | 0 mm | 8.05 m/s, 65° | - | - |
| 1777821547 | 14.44° C | 57% | 1022.4 hPa | 0 mm | 22.35 m/s, 14° | - | - |
| 1777821247 | 14.44° C | 58% | 1022.4 hPa | 0 mm | 18.33 m/s, 49° | - | - |
| 1777820947 | 14.44° C | 58% | 1022.4 hPa | 0 mm | 18.33 m/s, 32° | - | - |
| 1777820647 | 14.44° C | 57% | 1022.4 hPa | 0 mm | 22.8 m/s, 46° | - | - |
| 1777820347 | 14.44° C | 56% | 1022.4 hPa | 0 mm | 16.99 m/s, 7° | - | - |
| 1777820047 | 15° C | 58% | 1022.4 hPa | 0 mm | 12.07 m/s, 22° | - | - |
| 1777819747 | 15° C | 58% | 1022.4 hPa | 0 mm | 13.86 m/s, 144° | - | - |
| 1777819447 | 15° C | 58% | 1022.4 hPa | 0 mm | 18.78 m/s, 0° | - | - |
| 1777819147 | 15° C | 55% | 1022.4 hPa | 0 mm | 7.15 m/s, 78° | - | - |
| 1777818846 | 15° C | 57% | 1022.4 hPa | 0 mm | 16.09 m/s, 43° | - | - |
| 1777818546 | 15° C | 54% | 1022.4 hPa | 0 mm | 16.09 m/s, 91° | - | - |
| 1777818246 | 15° C | 56% | 1022.4 hPa | 0 mm | 15.2 m/s, 27° | - | - |
| 1777817946 | 15.56° C | 57% | 1022.4 hPa | 0 mm | 10.28 m/s, 313° | - | - |
| 1777817646 | 15.56° C | 51% | 1022.4 hPa | 0 mm | 21.01 m/s, 342° | - | - |
| 1777817346 | 15.56° C | 54% | 1022.4 hPa | 0 mm | 16.09 m/s, 359° | - | - |
* Rain latest hour (hover to see other rain measurements)
** Current wind speed in m/s (hover to see current wind gust speed)